GEESAT 6-03

Satellite information

Favourite Embed

Satellite Type and Status

PAYLOADIN ORBIT

Key statistics

Satellite GEESAT 6-03 at a glance.

Uptime

26

Days in orbit

Revolutions

≈ 14.9

Per day

Orbit

LEO

Low Earth Orbit

Inclination

50.0

Latest

Satellite identification and parameters

Extended collection of information and parameters for GEESAT 6-03.

Object identification

Identified? True

Debris? False

Object name: GEESAT 6-03

International designator: 2025-214D

Object number (NORAD): 65715

Object ID (CCSDS): 65715

Country: PEOPLES REPUBLIC OF CHINA (PRC)

Current information (Y/N): Y

Orbital parameters

Period: 96.54 minutes

Inclination: 49.9834 deg

SMA: 6971.047 km

Apoapsis: 602.48 km

Periapsis: 583.343 km

RAAN: 11.6054 deg

Eccentricy: 0.00137258

Argument of periapsis: 9.8155 deg

Mean anomaly: 350.3052 deg

Mean motion: 14.91611729 rev/day

Mean motion (dot): -0.00002374 rev/day2

B* drag term: -0.00020917625 1/REarth

Two-line elements (TLE)

Creation date: Oct. 19, 2025, 10:30 a.m.

Reference frame: TEME

Reference center: EARTH

Epoch: Oct. 13, 2025, 5:45 p.m. UTC

TLE line 0: 0 GEESAT 6-03

TLE line 1: 1 65715U 25214D 25286.73983531 -.00002374 00000-0 -20918-3 0 9991

TLE line 2: 2 65715 49.9834 11.6054 0013726 9.8155 350.3052 14.91611729 2907

Live tracking on map

Real-time ground track for satellite GEESAT 6-03.

In-orbit conjunctions

There are no conjunctions computed for GEESAT 6-03, at the moment. Check back to stay up to date, as we update our databases every day.

Go to all conjunctions

Associated space launch

12 LEO communications satellites for Chinese car manufacturer Geely Automotive for testing autonomous driving/inter-vehicle communication services. They also carry payloads for ocean observation.

GEESAT 6-03 was lifted into orbit during the mission ‘Smart Dragon 3 | Geely Constellation Group 06’, on board a Smart Dragon 3 space rocket.

The launch took place on Sept. 24, 2025, 7:56 a.m. from Oriental Spaceport mobile launch ship.

For more information about the launch, click the button.

Launch to space Smart Dragon 3 | Geely Constellation Group 06
Smart Dragon 3 | Geely Constellation Group 06

Agency: N/A

Status: Launch Successful

Launch date: Sept. 24, 2025, 7:56 a.m. UTC

Rocket: Smart Dragon 3

Launch pad: Oriental Spaceport mobile launch ship

Location: Sea Launch

...

Latest news about this satellite

News about space launch
China boosts broadband, IoT and weather satellite fleets with flurry of launches

A flurry of launch activity has seen China add to an Internet of Things constellation, loft new broadband satellites and boost its weather satellite fleet. The post China boosts broadband, IoT and weather satellite fleets with flurry of launches appeared...

News about space launch
Launch Roundup: Kuiper, Starlink, IMAP headline launch manifest

A busy slate of launches is planned for the last full week of September, including… The post Launch Roundup: Kuiper, Starlink, IMAP headline launch manifest appeared first on NASASpaceFlight.com.


Newsletter sign-up

Weekly statistics, charts and insights to help you stay on top of the space industry.